Lid_Strength_Index
1 3 5 8 12 13 14 12 8 9 9 6 5 7 7 7 9 12 2 1 0 0 -0 -0 -1 -1 -1 -1 -1 -1 -1 -1 -1 -1 -1 -1 -1 -1 -1 -1 -1 -1 -2 -2 -2 -2 -2 -2 -2
5 6 7 11 14 15 14 12 10 8 7 6 6 6 7 9 5 4 3 1 0 0 -0 -0 -1 -1 -1 -1 -1 -1 -1 -1 -1 -1 -1 -1 -1 -1 -1 -1 -1 -1 -1 -2 -2 -2 -2 -2 -2
4 7 11 13 16 15 14 11 9 7 6 6 7 5 6 7 4 4 1 1 0 0 -0 -0 -1 -1 -1 -1 -1 -1 -1 -1 -1 -1 -1 -1 -1 -1 -1 -1 -1 -1 -1 -1 -1 -1 -2 -2 -2
9 10 12 15 16 14 12 11 9 7 7 5 6 8 5 3 3 2 1 0 0 0 0 -1 -1 -1 -1 -1 -1 -1 -1 -1 -1 -1 -1 -1 -1 -1 -1 -1 -1 -1 -1 -1 -1 -1 -1 -1 -1
11 13 15 16 16 13 12 11 10 8 8 7 6 8 7 4 2 1 1 0 1 0 0 -0 -1 -1 -1 -1 -1 -1 -1 -1 -1 -1 -1 -1 -1 -1 -1 -1 -1 -1 -1 -1 -1 -1 -1 -1 -1
12 14 16 17 15 12 11 10 11 7 7 7 7 7 7 3 2 2 1 1 0 0 -0 -0 -1 -1 -1 -1 -1 -1 -1 -1 -1 -1 -1 -1 -1 -1 -1 -1 -1 -1 -1 -1 -1 -1 -1 -1 -1
13 15 17 17 14 13 11 10 10 8 8 7 5 9 6 4 3 1 1 0 0 -0 0 0 0 -1 -1 -1 -1 -1 -1 -1 -1 -1 -1 -1 -1 -1 -1 -2 -2 -2 -2 -1 -1 -1 -1 -2 -2
12 14 17 17 14 13 11 11 11 8 7 4 5 8 8 4 2 1 1 1 1 0 0 0 0 0 0 0 -1 -1 -1 -1 -1 -1 -1 -1 -1 -1 -1 -1 -1 -2 -2 -2 -1 -2 -2 -2 -2
11 14 17 17 14 12 10 11 9 8 6 5 5 5 4 3 2 2 2 2 1 1 1 -0 0 0 0 0 -0 -1 -1 -1 -1 -1 -2 -1 0 0 -0 -1 -1 -1 -2 -1 -1 -1 -1 -1 -2
12 15 14 13 12 11 10 11 10 9 7 7 6 4 3 3 3 4 4 4 3 2 1 0 -0 -0 -0 -0 0 0 0 0 0 -0 0 0 1 0 -1 -1 -1 -1 -1 -1 -1 -1 -1 -1 0
13 13 11 11 11 11 10 9 10 10 9 7 7 5 4 4 4 4 3 3 3 2 1 1 0 -0 0 0 0 0 0 0 0 0 0 1 0 1 0 1 0 1 -1 0 -0 0 0 0 0
11 10 10 9 10 11 10 9 9 9 7 4 4 4 4 4 4 4 4 3 3 2 1 1 0 0 0 0 0 0 0 0 0 0 0 1 0 0 0 0 0 0 0 0 0 0 0 0 0
12 11 10 9 9 11 10 10 10 9 5 4 4 4 4 4 4 3 3 2 2 2 2 1 0 0 0 1 0 0 0 0 -0 0 0 0 0 0 0 1 0 0 0 0 0 0 0 0 0
10 9 8 8 9 10 10 9 9 8 5 5 5 5 4 4 4 4 3 3 3 2 2 1 1 0 1 1 0 0 0 0 0 0 0 -0 0 0 0 1 1 1 0 1 1 1 1 1 0
9 10 9 9 9 10 9 9 9 7 5 6 6 5 6 4 4 4 3 3 2 2 2 2 1 1 2 1 1 0 0 -0 0 0 0 -0 -0 0 1 0 1 1 1 2 2 3 2 2 1
10 11 13 10 8 8 8 12 8 7 6 7 6 5 5 5 4 3 3 3 2 3 2 2 1 2 2 1 1 1 0 1 1 0 0 1 1 1 2 1 0 1 2 2 3 3 3 3 2
12 14 13 11 9 9 10 11 8 8 8 6 6 6 5 5 4 3 3 3 4 4 2 1 1 2 2 1 1 1 2 1 1 1 1 1 0 0 1 1 1 1 2 3 2 3 3 3 2
15 14 13 12 10 10 12 11 9 8 9 9 9 5 5 5 5 3 3 2 3 4 2 1 1 2 1 1 1 1 1 1 2 2 1 1 1 0 1 1 1 1 1 2 3 3 3 3 3
11 12 13 10 9 11 11 11 9 8 7 7 8 7 6 6 4 3 3 2 3 4 2 2 2 2 1 1 2 2 2 1 1 1 1 2 1 1 1 1 1 1 2 2 2 3 3 3 2
11 12 12 11 9 10 11 11 10 8 8 7 7 7 7 6 5 4 3 4 4 4 3 2 2 2 1 1 1 1 2 2 2 2 2 1 1 0 1 1 2 2 2 3 2 2 3 3 2
11 12 12 12 10 10 11 12 11 8 7 7 6 7 6 6 6 6 5 4 4 3 2 3 3 2 1 1 1 1 1 2 2 2 2 1 1 1 1 1 2 4 4 4 3 2 2 3 2
13 9 10 11 12 14 11 16 13 10 10 9 8 8 8 6 5 5 4 4 4 3 2 3 3 4 3 3 3 3 4 3 2 1 2 2 1 1 1 1 4 4 4 3 1 0 2 2 3
11 9 10 10 13 15 13 15 14 11 12 10 8 8 8 9 8 6 5 5 4 4 4 4 4 4 3 2 2 3 3 2 2 2 2 2 2 1 0 3 4 4 3 2 1 1 1 1 2
8 10 11 13 14 17 14 15 15 14 12 10 8 8 9 8 8 8 7 5 5 4 4 4 4 4 3 3 3 4 4 3 4 4 3 3 3 3 2 1 3 3 3 2 2 2 2 1 1
10 13 16 17 17 17 13 15 15 11 10 9 8 8 9 9 9 8 7 7 6 5 4 4 5 5 4 4 3 3 3 3 4 4 4 4 3 3 2 2 2 3 2 2 3 3 3 2 2
12 12 16 20 20 18 13 17 15 10 8 7 7 8 7 8 8 7 7 6 5 6 6 5 6 6 5 4 4 3 4 4 4 4 4 3 2 2 1 1 2 3 2 2 3 3 4 2 1
11 14 12 16 17 19 16 15 11 10 9 8 8 7 8 8 8 7 6 5 5 5 7 6 5 6 6 5 5 5 5 4 4 3 2 2 2 0 0 0 1 1 2 3 2 2 4 2 1
10 9 15 15 21 22 18 17 16 13 11 10 9 8 7 6 7 6 5 5 4 5 5 6 6 6 7 7 5 5 6 6 5 5 4 3 3 2 1 1 1 1 1 2 3 4 4 3 2
13 13 13 14 16 19 21 18 11 11 10 10 9 8 7 6 6 5 5 4 4 4 4 5 6 6 6 7 7 6 6 6 6 6 5 4 4 3 2 1 1 1 1 1 2 3 4 4 4
12 12 13 16 17 17 17 17 9 9 9 8 8 7 6 6 6 6 5 5 4 4 5 5 5 5 6 6 6 7 7 7 7 7 6 5 6 5 4 3 1 1 1 1 2 1 1 2 4